Location: Newark
(17.9939°S, 31.0481°E)
Time: 08:03:12
(UTC+00:00)

Vanguard 1 - All Passes

Search period start: 19 November 2019 00:00
Search period end: 29 November 2019 00:00
Orbit: 652 x 3831 km, 34.2° (Epoch: 18 November)

Date Brightness Start Highest point End Pass type
(mag) Time Alt. Az. Time Alt. Az. Time Alt. Az.
19 Nov - 00:08:53 10° WSW 00:30:00 57° SSE 00:51:57 10° E visible
19 Nov - 02:35:15 10° WSW 02:59:22 86° NW 03:17:14 10° NE visible
19 Nov - 05:05:33 10° WSW 05:23:52 35° NW 05:36:16 10° NNE daylight
19 Nov - 17:22:02 10° NW 17:29:26 58° NE 17:43:22 10° ESE visible
19 Nov - 19:42:00 10° W 19:52:48 59° SSW 20:12:27 10° ESE visible
19 Nov - 22:05:31 10° WSW 22:21:30 48° S 22:43:59 10° ESE visible
20 Nov - 00:30:37 10° WSW 00:52:30 64° SSE 01:14:13 10° ENE visible
20 Nov - 02:57:07 10° WSW 03:20:53 73° NW 03:38:11 10° NE daylight
20 Nov - 05:29:28 10° W 05:44:40 25° NW 05:55:38 10° N daylight
20 Nov - 15:27:41 10° NNE 15:30:46 13° NE 15:34:33 10° ENE daylight
20 Nov - 17:42:39 10° NW 17:50:22 80° NE 18:05:24 10° ESE visible
20 Nov - 20:03:33 10° W 20:14:53 52° SSW 20:34:45 10° ESE visible
20 Nov - 22:27:22 10° WSW 22:44:13 49° S 23:06:55 10° E visible
21 Nov - 00:52:15 10° WSW 01:14:47 72° SSE 01:36:11 10° ENE visible
21 Nov - 03:19:11 10° WSW 03:42:11 60° NW 03:58:50 10° NE daylight
21 Nov - 05:54:57 10° W 06:05:33 17° NW 06:13:57 10° NNW daylight
21 Nov - 15:46:16 10° N 15:51:12 23° NE 15:58:30 10° E daylight
21 Nov - 18:03:33 10° WNW 18:11:35 80° SSW 18:27:17 10° ESE visible
21 Nov - 20:25:14 10° WSW 20:37:10 47° S 20:57:17 10° ESE visible
21 Nov - 22:49:05 10° WSW 23:06:53 52° SSE 23:29:49 10° E visible
22 Nov - 01:13:50 10° WSW 01:36:49 83° SSE 01:57:51 10° ENE visible
22 Nov - 03:41:35 10° WSW 04:03:18 48° NW 04:19:10 10° NNE daylight
22 Nov - 16:06:01 10° NNW 16:11:41 37° NE 16:21:09 10° ESE daylight
22 Nov - 18:24:42 10° WNW 18:33:05 64° SSW 18:49:11 10° ESE visible
22 Nov - 20:46:58 10° WSW 20:59:35 45° S 21:20:05 10° ESE visible
22 Nov - 23:10:42 10° WSW 23:29:25 57° SSE 23:52:32 10° E visible
23 Nov - 01:35:27 10° WSW 01:58:38 85° NW 02:19:12 10° NE visible
23 Nov - 04:04:31 10° WSW 04:24:20 37° NW 04:39:08 10° NNE daylight
23 Nov - 16:26:17 10° NW 16:32:21 57° NE 16:43:17 10° ESE visible
23 Nov - 18:46:03 10° W 18:54:49 53° SSW 19:11:12 10° ESE visible
23 Nov - 21:08:40 10° WSW 21:22:04 45° S 21:43:07 10° ESE visible
23 Nov - 23:32:11 10° WSW 23:51:46 64° SSE 00:15:00 10° ENE visible
24 Nov - 01:57:10 10° WSW 02:20:15 72° NW 02:40:14 10° NE visible
24 Nov - 04:28:16 10° W 04:45:22 27° NW 04:58:36 10° N daylight
24 Nov - 14:33:15 10° NE 14:33:58 10° NE 14:34:44 10° ENE daylight
24 Nov - 16:46:55 10° NW 16:53:15 83° NNE 17:05:07 10° ESE visible
24 Nov - 19:07:34 10° W 19:16:46 46° S 19:33:25 10° ESE visible
24 Nov - 21:30:18 10° WSW 21:44:33 47° SSE 22:06:16 10° E visible
24 Nov - 23:53:37 10° WSW 00:13:55 73° SSE 00:37:08 10° ENE visible
25 Nov - 02:19:06 10° WSW 02:41:40 60° NW 03:00:57 10° NE visible
25 Nov - 04:53:27 10° W 05:06:32 19° NW 05:17:12 10° N daylight
25 Nov - 14:50:37 10° N 14:54:29 20° NE 14:59:38 10° E daylight
25 Nov - 17:07:51 10° WNW 17:14:25 73° SSW 17:26:51 10° ESE visible
25 Nov - 19:29:10 10° WSW 19:38:52 42° S 19:55:55 10° ESE visible
25 Nov - 21:51:48 10° WSW 22:06:57 51° SSE 22:29:22 10° E visible
26 Nov - 00:15:03 10° WSW 00:35:52 84° SSE 00:58:56 10° ENE visible
26 Nov - 02:41:21 10° WSW 03:02:59 48° NW 03:21:20 10° NNE visible
26 Nov - 05:22:07 10° WNW 05:27:55 12° NW 05:33:11 10° NNW daylight
26 Nov - 15:10:19 10° NNW 15:15:01 34° NE 15:22:10 10° ESE daylight
26 Nov - 17:29:02 10° W 17:35:51 56° SSW 17:48:34 10° SE visible
26 Nov - 19:50:46 10° WSW 20:01:05 41° S 20:18:44 10° ESE visible
26 Nov - 22:13:12 10° SW 22:29:14 56° SSE 22:52:18 10° E visible
27 Nov - 00:36:29 10° WSW 00:57:40 84° NW 01:20:23 10° NE visible
27 Nov - 03:04:08 10° WSW 03:24:15 37° NW 03:41:22 10° NNE daylight
27 Nov - 15:30:37 10° NW 15:35:41 56° NE 15:44:05 10° ESE daylight
27 Nov - 17:50:23 10° W 17:57:30 46° SSW 18:10:23 10° SE visible
27 Nov - 20:12:20 10° WSW 20:23:20 41° S 20:41:50 10° ESE visible
27 Nov - 22:34:31 10° SW 22:51:21 64° SSE 23:14:57 10° ENE visible
28 Nov - 00:58:03 10° WSW 01:19:20 71° NW 01:41:30 10° NE visible
28 Nov - 03:27:42 10° W 03:45:34 28° NW 04:00:54 10° N daylight
28 Nov - 15:51:17 10° WNW 15:56:35 87° NNE 16:05:44 10° ESE daylight
28 Nov - 18:11:54 10° WSW 18:19:18 39° S 18:32:26 10° ESE visible
28 Nov - 20:33:46 10° SW 20:45:33 44° SSE 21:05:05 10° E visible
28 Nov - 22:55:46 10° SW 23:13:18 73° SSE 23:37:15 10° ENE visible
